SCP
-0 0 0 -0 0 0 0 0 0 0 0 0 0 0 0 0 0 0 0 0 0 0 0 0 0 -0 -0 -0 -0 0 0 0 0 0 0 0 0 0 -0 0 0 0 0 0 -0
-0 -0 -0 -0 -0 -0 -0 -0 -0 0 0 0 0 0 0 0 0 0 0 0 0 0 0 0 -0 -0 -0 0 0 0 0 0 0 0 0 0 0 0 0 0 0 0 0 0 -0
-0 -0 -0 -0 -0 -0 -0 -0 -0 -0 -0 0 0 0 0 0 0 0 0 0 0 0 0 0 -0 -0 -0 0 0 0 0 0 0 0 0 0 0 0 0 0 0 0 -0 -0 -0
-0 -0 -0 -0 -0 -0 -0 -0 -0 -0 -0 -0 -0 -0 -0 0 0 0 -0 0 0 0 0 0 0 0 0 0 0 0 0 0 0 0 0 0 0 0 0 0 -0 0 -0 -0 -0
0 0 -0 -0 -0 -0 -0 -0 -0 -0 -0 -0 -0 -0 0 -0 0 0 0 -0 -0 -0 0 0 0 0 0 0 0 0 0 0 0 0 0 0 0 0 0 0 0 0 -0 -0 -0
0 0 0 -0 -0 -0 -0 -0 -0 0 0 0 -0 -0 0 -0 0 0 0 0 0 -0 -0 0 -0 -0 -0 -0 0 0 0 0 0 0 0 0 0 0 0 0 -0 -0 -0 -0 -0
-0 0 0 -0 -0 -0 -0 -0 -0 -0 0 0 0 0 -0 0 0 0 0 0 0 0 0 0 0 -0 -0 -0 0 0 0 0 0 0 0 0 -0 -0 -0 -0 -0 -0 -0 -0 -0
-0 -0 0 0 0 -0 -0 -0 -0 0 0 0 0 0 -0 -0 0 0 0 0 0 -0 -0 -0 -0 -0 -0 0 0 0 0 0 0 0 0 0 -0 -0 -0 -0 -0 -0 -0 -0 -0
-0 -0 0 0 0 0 -0 -0 0 0 0 0 0 0 -0 -0 -0 0 0 -0 0 -0 -0 -0 0 0 0 -0 0 -0 0 0 0 0 0 0 -0 0 -0 -0 -0 -0 -0 -0 -0
-0 -0 0 0 0 0 0 0 0 0 0 0 0 -0 -0 -0 -0 -0 -0 -0 -0 -0 0 -0 0 0 0 0 -0 0 0 0 -0 0 0 -0 -0 -0 -0 -0 -0 -0 -0 -0 -0
-0 -0 -0 0 0 0 0 0 0 -0 -0 -0 -0 -0 -0 -0 0 -0 -0 -0 -0 -0 -0 -0 0 -0 -0 -0 -0 -0 0 -0 0 -0 -0 -0 -0 -0 -0 -0 -0 -0 -0 -0 -0
-0 0 -0 -0 -0 0 0 0 -0 -0 -0 -0 -0 -0 0 0 -0 -0 0 -0 -0 0 -0 0 -0 -0 -0 -0 -0 -0 0 -0 -0 -0 0 -0 -0 -0 0 -0 -0 -0 -0 -0 -0
-0 0 -0 -0 -0 0 0 -0 0 0 -0 -0 -0 -0 -0 -0 -0 -0 0 -0 -0 -0 -0 0 -0 -0 -0 -0 -0 -0 -0 -0 -0 0 0 -0 -0 -0 -0 0 0 0 -0 -0 -0
-0 -0 -0 -0 0 -0 -0 0 0 0 0 0 0 -0 -0 -0 -0 -0 -0 -0 -0 0 0 0 -0 0 0 0 0 0 0 -0 -0 0 -0 -0 -0 -0 -0 -0 0 0 0 0 0
0 0 0 0 0 0 0 0 0 0 0 -0 0 0 -0 -0 -0 -0 -0 -0 -0 -0 0 0 0 0 0 0 0 0 0 0 0 0 0 0 0 0 0 0 0 0 0 0 0
0 0 0 0 0 0 0 0 0 0 0 0 0 -0 -0 -0 -0 -0 -0 -0 -0 0 -0 0 0 0 0 0 0 0 0 0 0 0 0 0 0 0 0 0 0 0 0 0 0
0 0 0 0 0 0 0 0 0 0 0 -0 0 0 -0 -0 -0 -0 -0 -0 0 0 0 0 0 0 0 0 0 0 0 0 0 0 0 0 0 0 0 0 0 0 0 0 0
0 0 0 0 0 0 0 0 -0 0 0 0 0 -0 0 -0 -0 -0 -0 -0 -0 0 -0 0 0 0 0 0 0 0 0 0 0 0 0 0 0 0 0 0 0 0 0 0 0
0 0 0 0 0 0 0 0 0 0 0 -0 0 -0 -0 -0 -0 -0 0 0 -0 -0 -0 0 0 0 0 0 0 0 0 0 0 0 0 0 0 0 0 0 0 0 0 0 0
0 0 0 0 0 0 0 0 0 0 0 0 0 0 -0 -0 -0 -0 -0 -0 -0 -0 0 0 0 0 0 0 0 0 0 0 0 0 0 0 0 0 0 0 0 0 0 0 0
0 0 0 0 0 0 0 0 0 0 0 0 0 0 0 0 0 0 0 0 0 -0 0 0 0 0 0 0 0 0 0 0 0 0 0 0 0 0 0 0 0 0 0 0 0
0 0 0 0 0 0 0 0 0 0 0 0 0 0 0 0 0 0 0 0 0 0 0 0 0 0 0 0 0 0 0 0 0 0 0 0 0 0 0 0 0 0 0 0 0
0 0 0 0 0 0 0 0 0 0 0 0 0 0 0 0 0 0 0 0 0 0 0 0 0 0 0 0 0 0 0 0 0 0 0 0 0 0 0 0 0 0 0 0 0
0 0 0 0 0 0 0 0 0 0 0 0 0 0 0 0 0 0 0 0 0 0 0 0 0 0 0 0 0 0 0 0 0 0 0 0 -0 0 0 0 0 0 0 0 0
0 0 0 0 0 0 0 0 0 0 0 0 0 0 0 0 0 0 0 0 0 0 0 0 0 0 0 0 0 0 0 0 0 0 0 0 0 0 0 0 0 0 0 0 0
0 0 0 0 0 0 0 0 0 0 0 0 0 0 0 0 0 0 0 0 0 0 0 0 0 0 0 0 0 0 0 0 0 0 0 0 0 0 0 0 0 0 0 0 0
0 0 0 0 0 0 0 0 0 0 0 0 0 0 0 0 0 0 0 0 0 0 0 0 0 0 0 0 0 0 0 0 0 0 0 0 0 0 0 0 0 0 0 0 0
Wind_Speed_500mb
6 6 6 5 5 5 7 8 8 8 7 7 5 5 9 13 10 9 10 7 6 8 9 5 10 10 13 12 12 4 4 7 8 11 8 17 15 9 6 8 11 11 4 8 31
6 6 5 5 5 6 7 8 8 7 7 7 5 5 9 11 10 15 12 9 8 11 8 4 7 11 8 9 8 5 3 5 4 4 3 16 14 16 11 13 15 14 17 16 29
4 4 5 6 6 7 7 7 8 8 9 7 5 5 11 13 4 8 9 7 8 10 4 6 9 8 10 8 12 7 4 7 5 1 1 11 12 11 12 15 20 18 25 26 32
4 4 5 6 7 8 8 8 8 8 9 8 5 5 13 11 2 8 7 4 8 8 2 3 6 5 5 6 7 3 6 4 4 3 5 8 7 9 23 13 4 15 20 27 36
6 5 6 6 7 8 9 9 9 8 9 8 6 9 17 6 6 6 4 4 6 7 4 3 4 2 4 5 3 7 5 3 3 4 0 5 12 17 24 23 20 13 22 26 33
9 8 7 7 7 7 9 10 10 9 9 8 7 11 9 5 4 8 5 6 8 7 3 3 4 6 12 8 7 6 5 4 3 4 4 9 11 5 6 24 24 26 23 28 33
11 11 9 8 7 7 9 10 12 10 10 9 7 10 6 8 7 8 8 7 8 8 4 8 5 2 6 9 8 6 4 5 9 6 4 7 19 22 21 16 26 28 27 31 36
15 13 11 9 8 7 8 10 13 12 11 11 10 11 6 14 8 5 9 8 7 6 6 7 9 11 7 13 5 4 6 5 7 6 1 5 10 9 16 22 25 28 31 35 39
18 14 12 10 7 7 7 11 13 13 11 12 11 9 8 13 10 8 9 10 10 10 11 7 3 8 5 4 5 1 7 8 4 8 3 13 18 7 14 23 28 29 34 35 36
23 16 13 10 8 7 10 14 14 13 13 10 8 8 11 10 15 12 10 9 6 10 6 2 3 4 4 5 4 8 9 8 12 3 13 22 43 36 27 30 35 33 34 39 45
29 21 15 11 9 11 18 20 12 4 12 5 6 3 16 17 15 11 12 8 8 4 4 3 7 3 7 7 4 3 9 16 12 3 11 20 37 37 40 39 42 41 41 46 46
36 29 20 14 12 16 24 11 13 11 8 5 9 8 18 17 7 9 11 7 6 4 3 7 1 5 4 1 4 6 13 11 10 3 11 24 44 28 10 27 43 44 46 43 35
40 35 26 18 16 21 26 17 13 15 4 7 9 9 11 10 4 6 8 6 2 5 1 6 7 4 3 3 8 6 9 8 10 20 8 29 11 1 3 8 15 30 40 37 37
39 38 31 21 17 22 23 21 14 9 6 12 9 6 8 6 3 5 7 4 4 3 4 2 3 2 3 5 5 10 2 5 13 16 9 13 10 5 9 8 3 9 25 33 39
37 42 37 31 14 27 21 21 17 9 7 9 7 8 11 5 8 2 4 2 3 6 6 7 3 4 7 3 2 6 3 6 8 10 10 4 8 4 3 11 14 15 1 17 30
38 46 40 33 21 27 25 24 19 8 9 10 7 9 12 5 4 4 3 5 8 4 2 4 2 2 5 2 3 3 7 5 4 4 7 6 8 2 4 7 5 6 4 2 8
44 46 42 37 25 29 30 29 9 10 6 11 9 10 10 10 7 6 7 11 7 8 10 5 4 4 2 5 3 5 11 4 4 4 5 4 10 14 4 6 7 7 3 2 7
44 44 41 39 31 34 36 8 13 3 10 6 8 12 12 14 5 6 5 9 9 5 3 5 6 1 6 6 8 7 7 7 8 8 12 6 10 3 2 13 23 19 14 12 14
41 40 39 38 38 39 25 13 5 9 13 21 13 10 12 8 5 10 12 7 5 21 8 7 4 5 10 5 7 3 2 4 4 1 8 5 10 12 3 6 6 19 20 20 19
39 36 37 40 40 40 13 7 6 7 14 11 14 12 20 19 16 16 16 8 8 15 2 5 4 3 4 4 10 3 5 3 1 8 10 1 13 13 6 8 9 18 25 22 21
40 19 35 40 39 27 18 13 9 12 12 14 13 11 8 13 18 11 7 6 8 13 4 9 4 5 3 10 7 7 5 3 2 4 6 11 9 5 12 8 7 21 27 23 22
37 11 40 48 25 13 17 11 9 11 15 7 6 5 17 19 17 11 10 5 13 25 14 10 3 7 1 6 6 4 4 7 5 6 2 4 16 6 13 13 15 21 25 28 34
28 11 39 55 17 12 4 5 7 12 13 13 14 7 4 15 10 13 9 2 18 12 8 15 6 5 6 6 3 10 9 8 4 2 14 8 13 6 7 13 21 35 38 36 40
22 9 11 26 8 17 15 12 14 15 8 10 8 10 10 9 5 11 10 4 12 10 5 16 7 11 12 4 7 10 13 21 20 10 17 29 52 50 43 42 53 54 54 55 50
23 13 17 16 26 21 21 11 27 14 12 16 8 17 16 12 12 12 8 9 6 12 7 8 10 10 13 8 7 21 20 28 31 38 25 49 40 51 50 39 52 48 46 46 47
19 13 18 10 26 41 20 20 23 18 19 12 14 26 22 17 16 16 18 12 9 11 13 5 4 1 7 10 17 29 29 36 37 37 43 48 54 57 67 56 40 44 45 49 50
39 26 14 26 19 28 29 29 29 21 21 7 29 15 23 28 12 8 11 8 12 17 21 14 12 7 8 3 4 20 35 34 17 21 24 25 30 38 39 40 44 47 42 49 50
Wind_Direction_500mb
137 140 146 148 145 150 164 167 161 163 154 140 117 96 128 133 89 59 49 76 122 129 121 79 19 20 42 45 49 47 203 155 154 176 124 160 182 171 196 163 184 198 175 192 180
159 165 164 163 161 169 175 172 173 170 164 153 131 118 154 156 110 56 44 66 115 141 102 46 31 41 56 29 19 356 250 100 92 123 133 177 204 177 188 199 216 212 218 198 187
176 189 186 187 190 187 182 183 185 180 174 161 146 141 162 159 142 18 33 76 122 146 122 26 35 46 49 40 15 12 46 121 108 114 178 177 201 191 227 232 237 224 203 201 190
192 209 218 214 209 203 197 191 191 186 179 168 159 155 162 156 277 351 25 86 137 152 146 17 19 33 48 53 28 135 74 34 94 101 144 186 163 228 228 248 170 207 186 200 195
217 220 227 233 232 223 212 202 197 188 180 175 161 152 147 134 80 14 56 93 141 157 166 119 23 66 73 67 55 54 107 63 66 153 205 191 235 255 252 240 235 224 208 206 201
227 228 231 236 240 240 230 211 198 185 180 181 172 161 156 164 108 44 67 126 144 160 150 101 101 97 96 57 13 62 111 132 168 183 223 252 251 262 235 212 214 222 217 209 205
232 234 236 238 241 238 230 215 198 185 178 179 170 157 139 150 140 63 69 112 136 148 144 137 109 74 117 121 125 135 233 209 207 213 254 283 246 236 229 199 205 214 212 206 206
233 233 236 237 239 236 226 203 191 183 177 172 167 154 134 160 150 107 89 106 113 117 140 131 100 98 57 120 134 248 237 287 136 194 194 254 285 184 205 203 213 212 211 209 209
231 232 234 233 230 234 199 185 175 175 174 167 160 158 144 170 165 153 138 123 117 120 125 121 116 100 130 246 188 212 327 326 293 206 258 230 284 176 192 209 225 221 218 215 213
230 228 228 227 218 206 172 160 156 162 160 154 169 166 172 185 175 166 157 151 154 141 117 133 132 182 175 275 11 338 324 312 295 98 239 258 266 266 234 219 224 223 223 220 218
230 223 219 215 204 183 162 142 134 141 175 202 179 148 152 161 157 176 177 159 146 164 223 28 243 35 51 33 35 318 297 300 306 6 290 266 276 279 265 232 235 230 225 224 224
227 219 212 206 195 182 173 184 195 157 148 179 159 149 158 159 146 168 171 192 191 185 188 208 32 92 102 125 282 276 303 331 285 244 288 302 293 299 291 245 237 233 230 229 226
224 213 206 200 190 182 187 196 178 152 156 161 170 153 166 173 149 154 168 157 140 167 332 310 73 121 230 242 283 277 298 332 305 313 253 305 258 127 149 250 234 233 236 234 226
218 203 197 192 189 184 187 193 171 160 237 159 186 180 174 166 135 153 154 147 131 181 151 43 80 219 252 281 291 297 70 296 307 327 321 359 305 66 0 18 239 217 226 230 228
204 191 188 185 186 177 184 175 166 154 251 125 148 167 163 180 129 159 165 101 193 133 238 85 183 204 252 351 244 349 335 309 300 293 291 138 265 94 22 64 53 58 204 232 230
186 181 182 184 180 178 166 157 144 209 240 159 146 166 161 136 122 129 135 131 120 138 69 104 109 325 20 93 322 52 265 254 233 262 236 56 334 197 100 69 56 66 5 255 225
174 177 180 180 181 172 161 150 187 238 138 167 175 175 187 160 158 194 176 183 211 192 203 163 157 95 9 251 171 259 284 297 230 235 358 73 283 282 217 257 270 308 266 172 123
171 176 177 180 174 168 161 184 222 105 187 115 135 142 185 163 175 174 198 227 203 209 160 247 174 35 21 20 349 11 334 349 314 322 316 137 239 96 183 276 265 239 230 184 141
173 174 178 178 174 169 173 209 256 186 147 154 142 170 181 169 209 191 220 243 217 195 227 182 136 100 50 20 327 63 323 14 303 186 272 297 268 260 289 219 220 200 207 191 172
171 171 183 177 174 171 197 241 234 169 131 172 185 205 184 178 186 198 186 168 194 194 319 141 188 27 111 170 70 335 90 256 163 321 304 273 283 278 244 234 192 209 215 208 199
164 159 186 177 170 177 208 216 215 210 167 176 180 160 199 179 206 202 186 152 194 153 168 165 241 118 225 202 171 151 179 134 312 300 299 310 279 237 260 247 262 218 216 223 234
166 179 173 170 177 205 207 197 183 171 197 204 165 134 181 170 186 216 220 264 171 156 175 176 161 199 60 67 349 310 222 219 240 188 180 271 271 193 259 275 270 254 252 255 267
159 121 172 173 201 204 184 202 214 162 189 186 201 219 166 171 194 204 186 72 169 170 157 176 198 194 187 157 169 233 194 204 123 132 226 257 260 148 234 273 265 262 273 274 279
163 145 155 202 215 217 182 199 205 209 187 183 158 149 157 183 178 178 202 114 175 176 167 163 185 250 270 34 125 189 199 208 215 220 264 238 277 280 283 285 287 282 282 287 290
184 181 173 180 211 194 200 192 194 188 209 194 186 210 181 178 173 197 162 146 147 172 147 199 230 224 260 253 249 270 243 206 208 233 249 270 276 278 289 298 302 297 290 286 283
180 168 163 162 171 188 180 198 198 191 175 196 218 197 197 207 197 184 168 194 189 165 180 172 201 146 261 237 241 270 256 250 233 243 254 264 273 275 283 290 295 299 296 289 284
206 191 177 162 161 179 208 196 194 176 209 214 207 176 207 225 205 76 159 167 170 167 178 175 164 166 260 130 215 269 258 230 222 216 224 237 253 288 295 295 299 302 294 288 289
Wind_Speed_850mb
6 6 6 5 5 5 7 8 8 8 7 7 5 5 9 13 10 9 10 7 6 8 9 5 10 10 13 12 12 4 4 7 8 11 8 17 15 9 6 8 11 11 4 8 31
6 6 5 5 5 6 7 8 8 7 7 7 5 5 9 11 10 15 12 9 8 11 8 4 7 11 8 9 8 5 3 5 4 4 3 16 14 16 11 13 15 14 17 16 29
4 4 5 6 6 7 7 7 8 8 9 7 5 5 11 13 4 8 9 7 8 10 4 6 9 8 10 8 12 7 4 7 5 1 1 11 12 11 12 15 20 18 25 26 32
4 4 5 6 7 8 8 8 8 8 9 8 5 5 13 11 2 8 7 4 8 8 2 3 6 5 5 6 7 3 6 4 4 3 5 8 7 9 23 13 4 15 20 27 36
6 5 6 6 7 8 9 9 9 8 9 8 6 9 17 6 6 6 4 4 6 7 4 3 4 2 4 5 3 7 5 3 3 4 0 5 12 17 24 23 20 13 22 26 33
9 8 7 7 7 7 9 10 10 9 9 8 7 11 9 5 4 8 5 6 8 7 3 3 4 6 12 8 7 6 5 4 3 4 4 9 11 5 6 24 24 26 23 28 33
11 11 9 8 7 7 9 10 12 10 10 9 7 10 6 8 7 8 8 7 8 8 4 8 5 2 6 9 8 6 4 5 9 6 4 7 19 22 21 16 26 28 27 31 36
15 13 11 9 8 7 8 10 13 12 11 11 10 11 6 14 8 5 9 8 7 6 6 7 9 11 7 13 5 4 6 5 7 6 1 5 10 9 16 22 25 28 31 35 39
18 14 12 10 7 7 7 11 13 13 11 12 11 9 8 13 10 8 9 10 10 10 11 7 3 8 5 4 5 1 7 8 4 8 3 13 18 7 14 23 28 29 34 35 36
23 16 13 10 8 7 10 14 14 13 13 10 8 8 11 10 15 12 10 9 6 10 6 2 3 4 4 5 4 8 9 8 12 3 13 22 43 36 27 30 35 33 34 39 45
29 21 15 11 9 11 18 20 12 4 12 5 6 3 16 17 15 11 12 8 8 4 4 3 7 3 7 7 4 3 9 16 12 3 11 20 37 37 40 39 42 41 41 46 46
36 29 20 14 12 16 24 11 13 11 8 5 9 8 18 17 7 9 11 7 6 4 3 7 1 5 4 1 4 6 13 11 10 3 11 24 44 28 10 27 43 44 46 43 35
40 35 26 18 16 21 26 17 13 15 4 7 9 9 11 10 4 6 8 6 2 5 1 6 7 4 3 3 8 6 9 8 10 20 8 29 11 1 3 8 15 30 40 37 37
39 38 31 21 17 22 23 21 14 9 6 12 9 6 8 6 3 5 7 4 4 3 4 2 3 2 3 5 5 10 2 5 13 16 9 13 10 5 9 8 3 9 25 33 39
37 42 37 31 14 27 21 21 17 9 7 9 7 8 11 5 8 2 4 2 3 6 6 7 3 4 7 3 2 6 3 6 8 10 10 4 8 4 3 11 14 15 1 17 30
38 46 40 33 21 27 25 24 19 8 9 10 7 9 12 5 4 4 3 5 8 4 2 4 2 2 5 2 3 3 7 5 4 4 7 6 8 2 4 7 5 6 4 2 8
44 46 42 37 25 29 30 29 9 10 6 11 9 10 10 10 7 6 7 11 7 8 10 5 4 4 2 5 3 5 11 4 4 4 5 4 10 14 4 6 7 7 3 2 7
44 44 41 39 31 34 36 8 13 3 10 6 8 12 12 14 5 6 5 9 9 5 3 5 6 1 6 6 8 7 7 7 8 8 12 6 10 3 2 13 23 19 14 12 14
41 40 39 38 38 39 25 13 5 9 13 21 13 10 12 8 5 10 12 7 5 21 8 7 4 5 10 5 7 3 2 4 4 1 8 5 10 12 3 6 6 19 20 20 19
39 36 37 40 40 40 13 7 6 7 14 11 14 12 20 19 16 16 16 8 8 15 2 5 4 3 4 4 10 3 5 3 1 8 10 1 13 13 6 8 9 18 25 22 21
40 19 35 40 39 27 18 13 9 12 12 14 13 11 8 13 18 11 7 6 8 13 4 9 4 5 3 10 7 7 5 3 2 4 6 11 9 5 12 8 7 21 27 23 22
37 11 40 48 25 13 17 11 9 11 15 7 6 5 17 19 17 11 10 5 13 25 14 10 3 7 1 6 6 4 4 7 5 6 2 4 16 6 13 13 15 21 25 28 34
28 11 39 55 17 12 4 5 7 12 13 13 14 7 4 15 10 13 9 2 18 12 8 15 6 5 6 6 3 10 9 8 4 2 14 8 13 6 7 13 21 35 38 36 40
22 9 11 26 8 17 15 12 14 15 8 10 8 10 10 9 5 11 10 4 12 10 5 16 7 11 12 4 7 10 13 21 20 10 17 29 52 50 43 42 53 54 54 55 50
23 13 17 16 26 21 21 11 27 14 12 16 8 17 16 12 12 12 8 9 6 12 7 8 10 10 13 8 7 21 20 28 31 38 25 49 40 51 50 39 52 48 46 46 47
19 13 18 10 26 41 20 20 23 18 19 12 14 26 22 17 16 16 18 12 9 11 13 5 4 1 7 10 17 29 29 36 37 37 43 48 54 57 67 56 40 44 45 49 50
39 26 14 26 19 28 29 29 29 21 21 7 29 15 23 28 12 8 11 8 12 17 21 14 12 7 8 3 4 20 35 34 17 21 24 25 30 38 39 40 44 47 42 49 50
Wind_Direction_850mb
137 140 146 148 145 150 164 167 161 163 154 140 117 96 128 133 89 59 49 76 122 129 121 79 19 20 42 45 49 47 203 155 154 176 124 160 182 171 196 163 184 198 175 192 180
159 165 164 163 161 169 175 172 173 170 164 153 131 118 154 156 110 56 44 66 115 141 102 46 31 41 56 29 19 356 250 100 92 123 133 177 204 177 188 199 216 212 218 198 187
176 189 186 187 190 187 182 183 185 180 174 161 146 141 162 159 142 18 33 76 122 146 122 26 35 46 49 40 15 12 46 121 108 114 178 177 201 191 227 232 237 224 203 201 190
192 209 218 214 209 203 197 191 191 186 179 168 159 155 162 156 277 351 25 86 137 152 146 17 19 33 48 53 28 135 74 34 94 101 144 186 163 228 228 248 170 207 186 200 195
217 220 227 233 232 223 212 202 197 188 180 175 161 152 147 134 80 14 56 93 141 157 166 119 23 66 73 67 55 54 107 63 66 153 205 191 235 255 252 240 235 224 208 206 201
227 228 231 236 240 240 230 211 198 185 180 181 172 161 156 164 108 44 67 126 144 160 150 101 101 97 96 57 13 62 111 132 168 183 223 252 251 262 235 212 214 222 217 209 205
232 234 236 238 241 238 230 215 198 185 178 179 170 157 139 150 140 63 69 112 136 148 144 137 109 74 117 121 125 135 233 209 207 213 254 283 246 236 229 199 205 214 212 206 206
233 233 236 237 239 236 226 203 191 183 177 172 167 154 134 160 150 107 89 106 113 117 140 131 100 98 57 120 134 248 237 287 136 194 194 254 285 184 205 203 213 212 211 209 209
231 232 234 233 230 234 199 185 175 175 174 167 160 158 144 170 165 153 138 123 117 120 125 121 116 100 130 246 188 212 327 326 293 206 258 230 284 176 192 209 225 221 218 215 213
230 228 228 227 218 206 172 160 156 162 160 154 169 166 172 185 175 166 157 151 154 141 117 133 132 182 175 275 11 338 324 312 295 98 239 258 266 266 234 219 224 223 223 220 218
230 223 219 215 204 183 162 142 134 141 175 202 179 148 152 161 157 176 177 159 146 164 223 28 243 35 51 33 35 318 297 300 306 6 290 266 276 279 265 232 235 230 225 224 224
227 219 212 206 195 182 173 184 195 157 148 179 159 149 158 159 146 168 171 192 191 185 188 208 32 92 102 125 282 276 303 331 285 244 288 302 293 299 291 245 237 233 230 229 226
224 213 206 200 190 182 187 196 178 152 156 161 170 153 166 173 149 154 168 157 140 167 332 310 73 121 230 242 283 277 298 332 305 313 253 305 258 127 149 250 234 233 236 234 226
218 203 197 192 189 184 187 193 171 160 237 159 186 180 174 166 135 153 154 147 131 181 151 43 80 219 252 281 291 297 70 296 307 327 321 359 305 66 0 18 239 217 226 230 228
204 191 188 185 186 177 184 175 166 154 251 125 148 167 163 180 129 159 165 101 193 133 238 85 183 204 252 351 244 349 335 309 300 293 291 138 265 94 22 64 53 58 204 232 230
186 181 182 184 180 178 166 157 144 209 240 159 146 166 161 136 122 129 135 131 120 138 69 104 109 325 20 93 322 52 265 254 233 262 236 56 334 197 100 69 56 66 5 255 225
174 177 180 180 181 172 161 150 187 238 138 167 175 175 187 160 158 194 176 183 211 192 203 163 157 95 9 251 171 259 284 297 230 235 358 73 283 282 217 257 270 308 266 172 123
171 176 177 180 174 168 161 184 222 105 187 115 135 142 185 163 175 174 198 227 203 209 160 247 174 35 21 20 349 11 334 349 314 322 316 137 239 96 183 276 265 239 230 184 141
173 174 178 178 174 169 173 209 256 186 147 154 142 170 181 169 209 191 220 243 217 195 227 182 136 100 50 20 327 63 323 14 303 186 272 297 268 260 289 219 220 200 207 191 172
171 171 183 177 174 171 197 241 234 169 131 172 185 205 184 178 186 198 186 168 194 194 319 141 188 27 111 170 70 335 90 256 163 321 304 273 283 278 244 234 192 209 215 208 199
164 159 186 177 170 177 208 216 215 210 167 176 180 160 199 179 206 202 186 152 194 153 168 165 241 118 225 202 171 151 179 134 312 300 299 310 279 237 260 247 262 218 216 223 234
166 179 173 170 177 205 207 197 183 171 197 204 165 134 181 170 186 216 220 264 171 156 175 176 161 199 60 67 349 310 222 219 240 188 180 271 271 193 259 275 270 254 252 255 267
159 121 172 173 201 204 184 202 214 162 189 186 201 219 166 171 194 204 186 72 169 170 157 176 198 194 187 157 169 233 194 204 123 132 226 257 260 148 234 273 265 262 273 274 279
163 145 155 202 215 217 182 199 205 209 187 183 158 149 157 183 178 178 202 114 175 176 167 163 185 250 270 34 125 189 199 208 215 220 264 238 277 280 283 285 287 282 282 287 290
184 181 173 180 211 194 200 192 194 188 209 194 186 210 181 178 173 197 162 146 147 172 147 199 230 224 260 253 249 270 243 206 208 233 249 270 276 278 289 298 302 297 290 286 283
180 168 163 162 171 188 180 198 198 191 175 196 218 197 197 207 197 184 168 194 189 165 180 172 201 146 261 237 241 270 256 250 233 243 254 264 273 275 283 290 295 299 296 289 284
206 191 177 162 161 179 208 196 194 176 209 214 207 176 207 225 205 76 159 167 170 167 178 175 164 166 260 130 215 269 258 230 222 216 224 237 253 288 295 295 299 302 294 288 289